Find Starlink 32856

NORAD ID: 62819 Int'l Des: 2025-018 Owner: SPXS Country: US Constellation: starlink operational
LEOCIRCULAR

Live-Position

3D-Globus wird geladen...

Über Starlink 32856

Beschreibung wird geladen...

Nächste Überflüge

Passes for default location (London). Set your location on the main map for personalized predictions.

Höhenverlauf

Loading altitude history...

Zweizeiliger Elementsatz

1 62819U 25018P 26125.15450495 .00029966 00000-0 10193-2 0 9999
2 62819 53.1597 47.3077 0001659 85.0091 275.1099 15.30216204 71825
Epoch: 5. Mai 2026 • Age: 7 hours

Aktueller Status

Höhe 494.3 km
Geschwindigkeit 7.62 km/s
Subsatellitenpunkt -52.03°S, 58.16°W
Startdatum 24. Jan. 2025
Alter 1.2 years
Typ internet

Technische Details

Klassifizierung Payload
Masse 730.00 kg
Trockenmasse 700.00 kg
Gesamtmasse 730.00 kg
Länge 0.30 m
Durchmesser 4.10 m
Spannweite 29.00 m
Form Box + pan
Hersteller SPXS
Bus-Typ Starlink V2M
Phasenstatus In Orbit
Besitzer/Staat SPXS/US

Most Searched